| time (UTC) | temp F | wind direction | speed MPH | gust MPH | rain 1hr in | rain 24hr in | rain mn in | humidity % | barometer mb |
| 20260505022640 | 60 | 121 | 1.0 | 1.0 | 0.07 | 0.14 | 0.14 | 74 | 1014.1 |
| 20260505022137 | 60 | 117 | 2.0 | 2.0 | 0.07 | 0.13 | 0.13 | 74 | 1013.9 |
| 20260505021634 | 60 | 111 | 1.0 | 1.0 | 0.07 | 0.13 | 0.13 | 79 | 1014.2 |
| 20260505021131 | 60 | 150 | 1.0 | 1.0 | 0.17 | 0.12 | 0.12 | 80 | 1014.2 |
| 20260505020626 | 61 | 41 | 2.0 | 2.0 | 0.28 | 0.12 | 0.12 | 80 | 1013.8 |
| 20260505020122 | 62 | 20 | 1.0 | 1.0 | 0.24 | 0.09 | 0.09 | 73 | 1013.9 |
| 20260505015620 | 62 | 63 | 0.0 | 0.0 | 0.12 | 0.07 | 0.07 | 79 | 1014.0 |
| 20260505015116 | 62 | 43 | 0.0 | 0.0 | 0.17 | 0.06 | 0.06 | 73 | 1013.6 |
| 20260505014613 | 63 | 43 | 0.0 | 0.0 | 0.12 | 0.05 | 0.05 | 70 | 1013.6 |
| 20260505014110 | 63 | 43 | 0.0 | 0.0 | 0.00 | 0.03 | 0.03 | 67 | 1013.6 |
| 20260505013608 | 63 | 43 | 0.0 | 0.0 | 0.07 | 0.03 | 0.03 | 66 | 1013.9 |
| 20260505013105 | 63 | 8 | 0.0 | 0.0 | 0.07 | 0.03 | 0.03 | 68 | 1013.3 |
| 20260505012603 | 64 | 4 | 0.0 | 0.0 | 0.00 | 0.02 | 0.02 | 68 | 1013.2 |
| 20260505012059 | 64 | 53 | 0.0 | 0.0 | 0.00 | 0.02 | 0.02 | 65 | 1013.0 |
| 20260505011555 | 64 | 10 | 1.0 | 1.0 | 0.00 | 0.02 | 0.02 | 67 | 1012.7 |
| 20260505011053 | 65 | 16 | 1.0 | 1.0 | 0.05 | 0.02 | 0.02 | 66 | 1012.7 |
| 20260505010548 | 66 | 27 | 0.0 | 0.0 | 0.05 | 0.02 | 0.02 | 63 | 1012.5 |
| 20260505010044 | 66 | 36 | 1.0 | 1.0 | 0.00 | 0.01 | 0.01 | 56 | 1012.5 |
| 20260505005540 | 66 | 241 | 0.0 | 0.0 | 0.00 | 0.01 | 0.01 | 54 | 1013.0 |
| 20260505005038 | 67 | 240 | 0.0 | 0.0 | 0.00 | 0.01 | 0.01 | 53 | 1012.8 |
| 20260505004535 | 67 | 238 | 1.0 | 0.0 | 0.00 | 0.01 | 0.01 | 51 | 1012.9 |
| 20260505004032 | 68 | 314 | 0.0 | 0.0 | 0.07 | 0.01 | 0.01 | 48 | 1012.8 |
| 20260505003529 | 68 | 287 | 0.0 | 0.0 | 0.07 | 0.01 | 0.01 | 53 | 1012.8 |
| 20260505003027 | 68 | 291 | 0.0 | 0.0 | 0.00 | 0.00 | 0.00 | 49 | 1013.1 |
| 20260505002526 | 69 | 271 | 0.0 | 0.0 | 0.00 | 0.00 | 0.00 | 49 | 1012.6 |
| 20260505002026 | 69 | 303 | 0.0 | 1.0 | 0.00 | 0.00 | 0.00 | 46 | 1012.8 |
| 20260505001523 | 70 | 295 | 1.0 | 2.0 | 0.00 | 0.00 | 0.00 | 41 | 1012.7 |
| 20260505001020 | 72 | 345 | 0.0 | 0.0 | 0.00 | 0.00 | 0.00 | 40 | 1012.6 |
| 20260505000517 | 72 | 267 | 1.0 | 2.0 | 0.00 | 0.00 | 0.00 | 34 | 1012.2 |
| 20260505000015 | 73 | 301 | 2.0 | 3.0 | 0.00 | 0.00 | 0.00 | 32 | 1012.5 |
| 20260504235511 | 73 | 307 | 3.0 | 5.0 | 0.00 | 0.00 | 0.00 | 30 | 1012.1 |
| 20260504235008 | 73 | 293 | 1.0 | 2.0 | 0.00 | 0.00 | 0.00 | 30 | 1011.5 |
| 20260504234505 | 73 | 301 | 2.0 | 3.0 | 0.00 | 0.00 | 0.00 | 30 | 1011.7 |
| 20260504234002 | 73 | 299 | 3.0 | 5.0 | 0.00 | 0.00 | 0.00 | 30 | 1011.9 |
| 20260504233457 | 74 | 319 | 6.0 | 7.0 | 0.00 | 0.00 | 0.00 | 29 | 1012.0 |
| 20260504232954 | 74 | 342 | 3.0 | 3.0 | 0.00 | 0.00 | 0.00 | 29 | 1012.2 |
| 20260504232451 | 74 | 253 | 6.0 | 9.0 | 0.00 | 0.00 | 0.00 | 28 | 1012.4 |
| 20260504231949 | 75 | 298 | 7.0 | 8.0 | 0.00 | 0.00 | 0.00 | 28 | 1012.5 |
| 20260504231445 | 76 | 295 | 5.0 | 5.0 | 0.00 | 0.00 | 0.00 | 27 | 1012.6 |
| 20260504230941 | 77 | 308 | 5.0 | 6.0 | 0.00 | 0.00 | 0.00 | 23 | 1012.1 |
| 20260504230438 | 77 | 272 | 6.0 | 8.0 | 0.00 | 0.00 | 0.00 | 23 | 1012.1 |
| 20260504225937 | 78 | 309 | 4.0 | 9.0 | 0.00 | 0.00 | 0.00 | 22 | 1011.8 |
| 20260504225433 | 78 | 255 | 3.0 | 3.0 | 0.00 | 0.00 | 0.00 | 22 | 1011.8 |
| 20260504224931 | 78 | 280 | 4.0 | 5.0 | 0.00 | 0.00 | 0.00 | 21 | 1011.7 |
| 20260504224427 | 79 | 292 | 6.0 | 8.0 | 0.00 | 0.00 | 0.00 | 21 | 1011.7 |
| 20260504223924 | 79 | 282 | 7.0 | 10.0 | 0.00 | 0.00 | 0.00 | 20 | 1011.5 |
| 20260504223420 | 79 | 283 | 5.0 | 7.0 | 0.00 | 0.00 | 0.00 | 19 | 1011.8 |
| 20260504222916 | 79 | 280 | 5.0 | 6.0 | 0.00 | 0.00 | 0.00 | 19 | 1011.7 |
| 20260504222414 | 79 | 324 | 3.0 | 3.0 | 0.00 | 0.00 | 0.00 | 20 | 1011.6 |
| 20260504221911 | 80 | 341 | 5.0 | 7.0 | 0.00 | 0.00 | 0.00 | 19 | 1011.7 |
| 20260504221408 | 80 | 319 | 2.0 | 2.0 | 0.00 | 0.00 | 0.00 | 19 | 1011.5 |
| 20260504220905 | 80 | 312 | 5.0 | 6.0 | 0.00 | 0.00 | 0.00 | 18 | 1011.7 |
| 20260504220402 | 80 | 304 | 3.0 | 3.0 | 0.00 | 0.00 | 0.00 | 18 | 1011.7 |
| 20260504215859 | 81 | 303 | 5.0 | 7.0 | 0.00 | 0.00 | 0.00 | 18 | 1011.6 |
| 20260504215355 | 81 | 289 | 4.0 | 6.0 | 0.00 | 0.00 | 0.00 | 18 | 1011.8 |
| 20260504214851 | 82 | 270 | 9.0 | 10.0 | 0.00 | 0.00 | 0.00 | 18 | 1011.6 |
| 20260504214348 | 82 | 6 | 3.0 | 3.0 | 0.00 | 0.00 | 0.00 | 19 | 1011.6 |
| 20260504213845 | 82 | 277 | 3.0 | 5.0 | 0.00 | 0.00 | 0.00 | 18 | 1011.4 |
| 20260504213341 | 82 | 294 | 5.0 | 7.0 | 0.00 | 0.00 | 0.00 | 18 | 1011.4 |
| 20260504212838 | 83 | 294 | 3.0 | 3.0 | 0.00 | 0.00 | 0.00 | 19 | 1011.4 |
| 20260504212334 | 83 | 308 | 3.0 | 3.0 | 0.00 | 0.00 | 0.00 | 17 | 1011.5 |
| 20260504211832 | 83 | 312 | 2.0 | 3.0 | 0.00 | 0.00 | 0.00 | 17 | 1011.5 |
| 20260504211328 | 83 | 310 | 1.0 | 2.0 | 0.00 | 0.00 | 0.00 | 16 | 1011.4 |
| 20260504210826 | 83 | 253 | 2.0 | 3.0 | 0.00 | 0.00 | 0.00 | 16 | 1011.4 |
| 20260504210323 | 83 | 295 | 3.0 | 5.0 | 0.00 | 0.00 | 0.00 | 16 | 1011.7 |
| 20260504205820 | 83 | 247 | 5.0 | 6.0 | 0.00 | 0.00 | 0.00 | 16 | 1011.6 |
| 20260504205317 | 83 | 296 | 5.0 | 7.0 | 0.00 | 0.00 | 0.00 | 16 | 1011.7 |
| 20260504204815 | 84 | 260 | 3.0 | 3.0 | 0.00 | 0.00 | 0.00 | 16 | 1011.5 |
| 20260504204314 | 84 | 265 | 2.0 | 2.0 | 0.00 | 0.00 | 0.00 | 16 | 1011.5 |
| 20260504203813 | 84 | 260 | 4.0 | 5.0 | 0.00 | 0.00 | 0.00 | 16 | 1011.6 |
| 20260504203309 | 84 | 276 | 3.0 | 2.0 | 0.00 | 0.00 | 0.00 | 16 | 1011.6 |
| 20260504202804 | 84 | 209 | 4.0 | 5.0 | 0.00 | 0.00 | 0.00 | 15 | 1011.9 |
| 20260504202304 | 84 | 244 | 2.0 | 5.0 | 0.00 | 0.00 | 0.00 | 17 | 1011.8 |
| 20260504201759 | 84 | 284 | 3.0 | 3.0 | 0.00 | 0.00 | 0.00 | 17 | 1011.8 |
| 20260504201256 | 83 | 257 | 3.0 | 3.0 | 0.00 | 0.00 | 0.00 | 17 | 1011.8 |
| 20260504200754 | 83 | 251 | 1.0 | 2.0 | 0.00 | 0.00 | 0.00 | 18 | 1012.1 |
| 20260504200249 | 84 | 212 | 2.0 | 2.0 | 0.00 | 0.00 | 0.00 | 17 | 1011.9 |
| 20260504195746 | 83 | 216 | 3.0 | 3.0 | 0.00 | 0.00 | 0.00 | 17 | 1011.9 |
| 20260504195242 | 83 | 262 | 2.0 | 2.0 | 0.00 | 0.00 | 0.00 | 18 | 1011.9 |
| 20260504194739 | 82 | 359 | 1.0 | 1.0 | 0.00 | 0.00 | 0.00 | 18 | 1011.9 |
| 20260504194235 | 82 | 273 | 3.0 | 5.0 | 0.00 | 0.00 | 0.00 | 18 | 1011.8 |
| 20260504193732 | 82 | 1 | 1.0 | 1.0 | 0.00 | 0.00 | 0.00 | 20 | 1011.9 |
| 20260504193229 | 82 | 248 | 1.0 | 1.0 | 0.00 | 0.00 | 0.00 | 19 | 1012.1 |
| 20260504192727 | 82 | 350 | 2.0 | 2.0 | 0.00 | 0.00 | 0.00 | 20 | 1012.1 |
| 20260504192225 | 82 | 82 | 0.0 | 0.0 | 0.00 | 0.00 | 0.00 | 20 | 1011.9 |
| 20260504191724 | 81 | 142 | 3.0 | 3.0 | 0.00 | 0.00 | 0.00 | 20 | 1012.1 |
| 20260504191220 | 82 | 207 | 3.0 | 5.0 | 0.00 | 0.00 | 0.00 | 20 | 1012.1 |
| 20260504190715 | 81 | 149 | 0.0 | 0.0 | 0.00 | 0.00 | 0.00 | 20 | 1012.4 |
| 20260504190212 | 80 | 203 | 2.0 | 2.0 | 0.00 | 0.00 | 0.00 | 21 | 1012.0 |
| 20260504185709 | 80 | 296 | 4.0 | 6.0 | 0.00 | 0.00 | 0.00 | 21 | 1012.1 |
| 20260504185206 | 81 | 239 | 3.0 | 2.0 | 0.00 | 0.00 | 0.00 | 21 | 1012.4 |
| 20260504184702 | 80 | 251 | 3.0 | 5.0 | 0.00 | 0.00 | 0.00 | 21 | 1012.6 |
| 20260504184157 | 80 | 344 | 1.0 | 1.0 | 0.00 | 0.00 | 0.00 | 22 | 1012.4 |
| 20260504183654 | 80 | 296 | 2.0 | 2.0 | 0.00 | 0.00 | 0.00 | 23 | 1012.6 |
| 20260504183151 | 79 | 68 | 1.0 | 1.0 | 0.00 | 0.00 | 0.00 | 22 | 1012.6 |
| 20260504182649 | 79 | 163 | 3.0 | 3.0 | 0.00 | 0.00 | 0.00 | 22 | 1012.6 |
| 20260504182146 | 80 | 212 | 3.0 | 3.0 | 0.00 | 0.00 | 0.00 | 22 | 1012.9 |
| 20260504181643 | 80 | 259 | 2.0 | 2.0 | 0.00 | 0.00 | 0.00 | 22 | 1012.6 |
| 20260504181141 | 79 | 274 | 4.0 | 7.0 | 0.00 | 0.00 | 0.00 | 22 | 1013.0 |
| 20260504180640 | 79 | 215 | 5.0 | 7.0 | 0.00 | 0.00 | 0.00 | 22 | 1012.9 |
| 20260504180138 | 79 | 141 | 0.0 | 0.0 | 0.00 | 0.00 | 0.00 | 22 | 1012.8 |
| 20260504175635 | 79 | 206 | 3.0 | 5.0 | 0.00 | 0.00 | 0.00 | 23 | 1013.0 |
| 20260504175131 | 79 | 202 | 2.0 | 3.0 | 0.00 | 0.00 | 0.00 | 22 | 1013.1 |
| 20260504174630 | 78 | 166 | 1.0 | 1.0 | 0.00 | 0.00 | 0.00 | 23 | 1013.1 |
| 20260504174126 | 78 | 207 | 4.0 | 5.0 | 0.00 | 0.00 | 0.00 | 23 | 1013.4 |
| 20260504173623 | 78 | 184 | 4.0 | 3.0 | 0.00 | 0.00 | 0.00 | 23 | 1013.0 |
| 20260504173121 | 77 | 191 | 2.0 | 2.0 | 0.00 | 0.00 | 0.00 | 23 | 1013.0 |
| 20260504172617 | 77 | 245 | 4.0 | 5.0 | 0.00 | 0.00 | 0.00 | 23 | 1013.0 |
| 20260504172114 | 77 | 221 | 2.0 | 2.0 | 0.00 | 0.00 | 0.00 | 24 | 1013.2 |
| 20260504171610 | 77 | 193 | 4.0 | 5.0 | 0.00 | 0.00 | 0.00 | 24 | 1013.2 |
| 20260504171108 | 77 | 227 | 4.0 | 5.0 | 0.00 | 0.00 | 0.00 | 23 | 1013.2 |
| 20260504170603 | 77 | 260 | 9.0 | 10.0 | 0.00 | 0.00 | 0.00 | 23 | 1013.0 |
| 20260504150947 | 75 | 196 | 3.0 | 3.0 | 0.00 | 0.00 | 0.00 | 29 | 1013.0 |
| 20260504150443 | 76 | 136 | 1.0 | 2.0 | 0.00 | 0.00 | 0.00 | 29 | 1013.2 |
| 20260504140910 | 72 | 8 | 0.0 | 0.0 | 0.00 | 0.00 | 0.00 | 33 | 1012.6 |
| 20260504140406 | 72 | 7 | 0.0 | 0.0 | 0.00 | 0.00 | 0.00 | 33 | 1012.9 |
| 20260504130331 | 68 | 309 | 0.0 | 0.0 | 0.00 | 0.00 | 0.00 | 36 | 1012.0 |
| 20260504120254 | 68 | 54 | 0.0 | 0.0 | 0.00 | 0.00 | 0.00 | 37 | 1011.5 |
| 20260504110218 | 68 | 251 | 0.0 | 0.0 | 0.00 | 0.00 | 0.00 | 37 | 1011.7 |
| 20260504100142 | 70 | 309 | 0.0 | 0.0 | 0.00 | 0.00 | 0.00 | 35 | 1011.5 |
| 20260504090105 | 68 | 69 | 0.0 | 0.0 | 0.00 | 0.00 | 0.00 | 35 | 1011.2 |
| 20260504081535 | 69 | 69 | 0.0 | 0.0 | 0.00 | 0.00 | 0.00 | 33 | 1011.0 |
| 20260504081031 | 69 | 69 | 0.0 | 0.0 | 0.00 | 0.00 | 0.00 | 32 | 1011.5 |
| 20260504080527 | 69 | 69 | 1.0 | 1.0 | 0.00 | 0.00 | 0.00 | 32 | 1011.4 |
| 20260504050340 | 74 | 187 | 1.0 | 1.0 | 0.00 | 0.00 | 0.00 | 25 | 1011.9 |
| 20260504045837 | 74 | 39 | 0.0 | 0.0 | 0.00 | 0.00 | 0.00 | 25 | 1011.8 |
| 20260504045332 | 74 | 24 | 0.0 | 0.0 | 0.00 | 0.00 | 0.00 | 25 | 1011.9 |
| 20260504044829 | 74 | 347 | 0.0 | 0.0 | 0.00 | 0.00 | 0.00 | 25 | 1011.9 |
| 20260504044326 | 75 | 317 | 0.0 | 0.0 | 0.00 | 0.00 | 0.00 | 24 | 1012.0 |
| 20260504043824 | 75 | 316 | 0.0 | 0.0 | 0.00 | 0.00 | 0.00 | 24 | 1012.1 |
| 20260504043321 | 75 | 317 | 0.0 | 0.0 | 0.00 | 0.00 | 0.00 | 24 | 1012.2 |
| 20260504042818 | 76 | 317 | 1.0 | 2.0 | 0.00 | 0.00 | 0.00 | 24 | 1012.0 |
| 20260504042314 | 76 | 274 | 0.0 | 0.0 | 0.00 | 0.00 | 0.00 | 23 | 1011.7 |
| 20260504041811 | 76 | 288 | 1.0 | 1.0 | 0.00 | 0.00 | 0.00 | 23 | 1011.8 |
| 20260504041307 | 76 | 294 | 2.0 | 2.0 | 0.00 | 0.00 | 0.00 | 23 | 1011.8 |
| 20260504040803 | 77 | 227 | 1.0 | 1.0 | 0.00 | 0.00 | 0.00 | 22 | 1011.8 |
| 20260504040301 | 77 | 286 | 1.0 | 1.0 | 0.00 | 0.00 | 0.00 | 22 | 1011.4 |
| 20260504035756 | 77 | 269 | 1.0 | 1.0 | 0.00 | 0.00 | 0.00 | 22 | 1011.4 |
| 20260504035254 | 77 | 245 | 3.0 | 5.0 | 0.00 | 0.00 | 0.00 | 21 | 1011.1 |
| 20260504034751 | 77 | 279 | 2.0 | 2.0 | 0.00 | 0.00 | 0.00 | 21 | 1011.2 |
| 20260504034248 | 78 | 267 | 1.0 | 1.0 | 0.00 | 0.00 | 0.00 | 21 | 1010.9 |
| 20260504033746 | 78 | 265 | 4.0 | 6.0 | 0.00 | 0.00 | 0.00 | 20 | 1010.9 |
| 20260504033243 | 78 | 266 | 2.0 | 2.0 | 0.00 | 0.00 | 0.00 | 20 | 1011.0 |
| 20260504032740 | 78 | 298 | 2.0 | 2.0 | 0.00 | 0.00 | 0.00 | 20 | 1010.7 |
| 20260504032237 | 78 | 275 | 3.0 | 9.0 | 0.00 | 0.00 | 0.00 | 20 | 1010.5 |
| 20260504031734 | 79 | 259 | 1.0 | 1.0 | 0.00 | 0.00 | 0.00 | 19 | 1010.5 |
| 20260504031231 | 79 | 246 | 7.0 | 8.0 | 0.00 | 0.00 | 0.00 | 19 | 1010.5 |
| 20260504030727 | 80 | 296 | 3.0 | 3.0 | 0.00 | 0.00 | 0.00 | 18 | 1010.2 |
| 20260504030225 | 79 | 280 | 2.0 | 3.0 | 0.00 | 0.00 | 0.00 | 18 | 1010.0 |
| 20260504025721 | 79 | 267 | 4.0 | 7.0 | 0.00 | 0.00 | 0.00 | 18 | 1010.2 |
| 20260504025218 | 80 | 281 | 1.0 | 1.0 | 0.00 | 0.00 | 0.00 | 17 | 1009.8 |
| 20260504024715 | 80 | 250 | 4.0 | 6.0 | 0.00 | 0.00 | 0.00 | 16 | 1009.8 |
| 20260504024211 | 81 | 287 | 1.0 | 1.0 | 0.00 | 0.00 | 0.00 | 17 | 1009.9 |
| 20260504023708 | 81 | 249 | 3.0 | 3.0 | 0.00 | 0.00 | 0.00 | 16 | 1009.6 |
| 20260504023204 | 81 | 295 | 3.0 | 5.0 | 0.00 | 0.00 | 0.00 | 16 | 1009.3 |